User: anonymous   Login
Location: Narrabri
(30.3170°S, 149.7830°E)
Time: 19:08:14
(UTC+10:00)
Language:

Tiangong 2 - Orbit

View from above orbital plane
View from above orbital plane
View from above satellite
View from above satellite

Ground track
Ground track

The orbit data is extracted from the following two-line orbital elements,

1 41765U 16057A   18196.81157859  .00002776  00000-0  39342-4 0  9998
2 41765  42.7829 170.1211 0005731 100.3091 332.0072 15.59040051104495
Epoch (UTC): 15 July 2018 19:28:40
Eccentricity: 0.0005731
inclination: 42.7829°
perigee height: 386 km
apogee height: 394 km
right ascension of ascending node: 170.1211°
argument of perigee: 100.3091°
revolutions per day: 15.59040051
mean anomaly at epoch: 332.0072°
orbit number at epoch: 10449

The dashed part of the orbit path shows where the satellite is in the earth's shadow,  

DLR